When you browse on this site, cookies collect data to enhance your experience and personalize the content and advertising you see.
Visit our Privacy Policy to learn more. By continuing to use the site, you agree to this use of cookies and data.
  • In Czech Republic
  • List of Countries
  • For 7 days
  • Water Temperature
  • Satellite Maps
  • Weather Map
  • Weather Widgets
  • user-avatar
    Login

    Hourly Weather Samroung

    Today, 21 June, Friday

    Time Temperature Precipitation Wind Pressure Humidity
    00:00 +28°C° 0 mm 2 mps 754 mmHg 89%
    01:00 +28°C° 0 mm 3 mps 754 mmHg 90%
    02:00 +28°C° 0.1 mm 3 mps 753 mmHg 91%
    03:00 +28°C° 0.1 mm 3 mps 753 mmHg 92%
    04:00 +28°C° 0.1 mm 3 mps 753 mmHg 93%
    05:00 +28°C° 0.1 mm 3 mps 753 mmHg 91%
    06:00 +29°C° 0.1 mm 3 mps 754 mmHg 90%
    07:00 +29°C° 0.1 mm 3 mps 754 mmHg 88%
    08:00 +30°C° 0 mm 3 mps 754 mmHg 81%
    09:00 +33°C° 0 mm 4 mps 754 mmHg 75%
    10:00 +34°C° 0 mm 4 mps 755 mmHg 69%
    11:00 +34°C° 0.1 mm 4 mps 754 mmHg 67%
    12:00 +35°C° 0.1 mm 4 mps 754 mmHg 65%
    13:00 +35°C° 0.1 mm 5 mps 753 mmHg 63%
    14:00 +35°C° 0.1 mm 5 mps 753 mmHg 65%
    15:00 +34°C° 0.1 mm 5 mps 752 mmHg 67%
    16:00 +34°C° 0.1 mm 5 mps 752 mmHg 68%
    17:00 +33°C° 0 mm 4 mps 752 mmHg 74%
    18:00 +30°C° 0 mm 4 mps 752 mmHg 80%
    19:00 +29°C° 0 mm 3 mps 752 mmHg 86%
    20:00 +29°C° 0 mm 3 mps 753 mmHg 87%
    21:00 +29°C° 0 mm 3 mps 753 mmHg 88%
    22:00 +29°C° 0 mm 3 mps 754 mmHg 89%
    23:00 +29°C° 0 mm 3 mps 753 mmHg 90%

    Tomorrow, 22 June, Saturday

    Time Temperature Precipitation Wind Pressure Humidity
    00:00 +29°C° 0 mm 3 mps 753 mmHg 90%
    01:00 +28°C° 0 mm 3 mps 753 mmHg 91%
    02:00 +28°C° 0.4 mm 3 mps 753 mmHg 91%
    03:00 +28°C° 0.4 mm 3 mps 752 mmHg 91%
    04:00 +28°C° 0.4 mm 3 mps 752 mmHg 91%
    05:00 +29°C° 0.2 mm 3 mps 752 mmHg 90%
    06:00 +29°C° 0.2 mm 3 mps 753 mmHg 89%
    07:00 +29°C° 0.2 mm 2 mps 753 mmHg 87%
    08:00 +31°C° 0.4 mm 3 mps 753 mmHg 81%
    09:00 +33°C° 0.4 mm 4 mps 753 mmHg 75%
    10:00 +34°C° 0.4 mm 4 mps 753 mmHg 69%
    11:00 +34°C° 0.2 mm 4 mps 753 mmHg 67%
    12:00 +35°C° 0.2 mm 4 mps 753 mmHg 65%
    13:00 +35°C° 0.2 mm 4 mps 752 mmHg 63%
    14:00 +35°C° 0.2 mm 4 mps 752 mmHg 65%
    15:00 +34°C° 0.2 mm 4 mps 751 mmHg 67%
    16:00 +34°C° 0.2 mm 4 mps 751 mmHg 70%
    17:00 +33°C° 0.2 mm 4 mps 751 mmHg 77%
    18:00 +30°C° 0.2 mm 3 mps 752 mmHg 84%
    19:00 +29°C° 0.2 mm 3 mps 752 mmHg 91%
    20:00 +29°C° 0 mm 3 mps 752 mmHg 92%
    21:00 +29°C° 0 mm 3 mps 753 mmHg 93%
    22:00 +29°C° 0 mm 3 mps 753 mmHg 94%
    23:00 +29°C° 0.1 mm 3 mps 753 mmHg 94%

    Day after tomorrow, 23 June, Sunday

    Time Temperature Precipitation Wind Pressure Humidity
    00:00 +29°C° 0.1 mm 2 mps 752 mmHg 95%
    01:00 +29°C° 0.1 mm 2 mps 752 mmHg 95%
    02:00 +28°C° 0.1 mm 3 mps 752 mmHg 94%
    03:00 +28°C° 0.1 mm 3 mps 751 mmHg 94%
    04:00 +28°C° 0.1 mm 3 mps 751 mmHg 93%
    05:00 +29°C° 0.1 mm 3 mps 752 mmHg 92%
    06:00 +29°C° 0.1 mm 3 mps 752 mmHg 91%
    07:00 +29°C° 0.1 mm 3 mps 752 mmHg 89%
    08:00 +32°C° 0.1 mm 4 mps 752 mmHg 83%
    09:00 +33°C° 0.1 mm 4 mps 753 mmHg 77%
    10:00 +34°C° 0.1 mm 4 mps 753 mmHg 71%
    11:00 +34°C° 0.8 mm 4 mps 753 mmHg 72%
    12:00 +34°C° 0.8 mm 4 mps 752 mmHg 73%
    13:00 +34°C° 0.8 mm 5 mps 752 mmHg 74%
    14:00 +33°C° 1.2 mm 5 mps 752 mmHg 77%
    15:00 +32°C° 1.2 mm 5 mps 751 mmHg 80%
    16:00 +32°C° 1.2 mm 5 mps 751 mmHg 83%
    17:00 +30°C° 0.5 mm 4 mps 751 mmHg 86%
    18:00 +29°C° 0.5 mm 4 mps 752 mmHg 89%
    19:00 +29°C° 0.5 mm 3 mps 752 mmHg 92%
    20:00 +29°C° 0.3 mm 3 mps 752 mmHg 93%
    21:00 +29°C° 0.3 mm 3 mps 753 mmHg 93%
    22:00 +29°C° 0.3 mm 2 mps 754 mmHg 93%
    23:00 +28°C° 0.9 mm 2 mps 753 mmHg 93%

    24 June, Monday

    Time Temperature Precipitation Wind Pressure Humidity
    00:00 +28°C° 0.9 mm 3 mps 753 mmHg 93%
    01:00 +28°C° 0.9 mm 3 mps 753 mmHg 93%
    02:00 +28°C° 2.2 mm 3 mps 753 mmHg 93%
    03:00 +28°C° 2.2 mm 3 mps 753 mmHg 94%
    04:00 +27°C° 2.2 mm 3 mps 753 mmHg 95%
    05:00 +27°C° 1.3 mm 3 mps 753 mmHg 95%
    06:00 +27°C° 1.3 mm 2 mps 753 mmHg 96%
    07:00 +27°C° 1.3 mm 2 mps 754 mmHg 96%
    08:00 +27°C° 0.9 mm 2 mps 754 mmHg 95%
    09:00 +28°C° 0.9 mm 2 mps 754 mmHg 94%
    10:00 +28°C° 0.9 mm 2 mps 755 mmHg 93%
    11:00 +28°C° 1.6 mm 3 mps 754 mmHg 93%
    12:00 +28°C° 1.6 mm 3 mps 754 mmHg 93%
    13:00 +28°C° 1.6 mm 3 mps 754 mmHg 93%
    14:00 +28°C° 3 mm 3 mps 753 mmHg 94%
    15:00 +27°C° 3 mm 3 mps 753 mmHg 96%
    16:00 +27°C° 3 mm 4 mps 753 mmHg 97%
    17:00 +27°C° 1 mm 3 mps 753 mmHg 97%
    18:00 +27°C° 1 mm 3 mps 754 mmHg 97%
    19:00 +27°C° 1 mm 3 mps 754 mmHg 97%
    20:00 +27°C° 0 mm 3 mps 754 mmHg 96%
    21:00 +27°C° 0 mm 3 mps 755 mmHg 96%
    22:00 +27°C° 0 mm 2 mps 755 mmHg 95%
    23:00 +27°C° 0 mm 2 mps 755 mmHg 95%

    25 June, Tuesday

    Time Temperature Precipitation Wind Pressure Humidity
    00:00 +27°C° 0 mm 2 mps 755 mmHg 95%
    01:00 +27°C° 0 mm 2 mps 754 mmHg 95%
    02:00 +27°C° 0.2 mm 2 mps 754 mmHg 95%
    03:00 +27°C° 0.2 mm 2 mps 754 mmHg 95%
    04:00 +27°C° 0.2 mm 2 mps 753 mmHg 95%
    05:00 +27°C° 0.8 mm 2 mps 754 mmHg 95%
    06:00 +27°C° 0.8 mm 2 mps 754 mmHg 95%
    07:00 +27°C° 0.8 mm 2 mps 754 mmHg 95%
    08:00 +28°C° 1.7 mm 2 mps 755 mmHg 94%
    09:00 +28°C° 1.7 mm 2 mps 755 mmHg 93%
    10:00 +29°C° 1.7 mm 2 mps 755 mmHg 92%
    11:00 +29°C° 1.7 mm 3 mps 755 mmHg 91%
    12:00 +29°C° 1.7 mm 3 mps 754 mmHg 90%
    13:00 +30°C° 1.7 mm 3 mps 754 mmHg 89%
    14:00 +29°C° 0.8 mm 3 mps 753 mmHg 89%
    15:00 +29°C° 0.8 mm 2 mps 753 mmHg 89%
    16:00 +28°C° 0.8 mm 2 mps 753 mmHg 89%
    17:00 +28°C° 0.3 mm 2 mps 753 mmHg 90%
    18:00 +28°C° 0.3 mm 2 mps 753 mmHg 92%
    19:00 +27°C° 0.3 mm 2 mps 754 mmHg 93%
    20:00 +27°C° 0.8 mm 2 mps 754 mmHg 93%
    21:00 +27°C° 0.8 mm 3 mps 755 mmHg 94%
    22:00 +27°C° 0.8 mm 3 mps 755 mmHg 94%
    23:00 +27°C° 1.7 mm 3 mps 755 mmHg 95%

    26 June, Wednesday

    Time Temperature Precipitation Wind Pressure Humidity
    00:00 +27°C° 1.7 mm 4 mps 754 mmHg 95%
    01:00 +27°C° 1.7 mm 4 mps 754 mmHg 96%
    02:00 +27°C° 3.3 mm 4 mps 754 mmHg 97%
    03:00 +27°C° 3.3 mm 3 mps 753 mmHg 97%
    04:00 +27°C° 3.3 mm 3 mps 753 mmHg 98%
    05:00 +27°C° 3.7 mm 4 mps 753 mmHg 98%
    06:00 +27°C° 3.7 mm 4 mps 754 mmHg 98%
    07:00 +27°C° 3.7 mm 4 mps 754 mmHg 97%
    08:00 +27°C° 7 mm 5 mps 754 mmHg 98%
    09:00 +27°C° 7 mm 5 mps 754 mmHg 98%
    10:00 +27°C° 7 mm 6 mps 755 mmHg 98%
    11:00 +27°C° 10.1 mm 6 mps 754 mmHg 98%
    12:00 +27°C° 10.1 mm 6 mps 754 mmHg 98%
    13:00 +27°C° 10.1 mm 6 mps 753 mmHg 98%
    14:00 +27°C° 12.5 mm 7 mps 753 mmHg 98%
    15:00 +27°C° 12.5 mm 7 mps 753 mmHg 97%
    16:00 +27°C° 12.5 mm 7 mps 752 mmHg 97%
    17:00 +27°C° 8.5 mm 7 mps 753 mmHg 97%
    18:00 +27°C° 8.5 mm 7 mps 753 mmHg 97%
    19:00 +27°C° 8.5 mm 7 mps 754 mmHg 97%
    20:00 +27°C° 4.6 mm 7 mps 754 mmHg 97%
    21:00 +27°C° 4.6 mm 7 mps 755 mmHg 96%
    22:00 +27°C° 4.6 mm 7 mps 755 mmHg 96%
    23:00 +27°C° 1.6 mm 7 mps 755 mmHg 95%
    Show more